Time,TemperatureF,DewpointF,PressureIn,WindDirection,WindDirectionDegrees,WindSpeedMPH,WindSpeedGustMPH,Humidity,HourlyPrecipIn,Conditions,Clouds,dailyrainin,SolarRadiationWatts/m^2,SoftwareType,DateUTC
2013-05-15 00:01:00,66.4,58.6,30.18,ENE,75,4.0,8.0,76,0.00,,,0.00,0,Wunderground v.1.15,2013-05-15 04:01:00,
2013-05-15 00:02:00,66.4,58.6,30.18,ENE,75,4.0,8.0,76,0.00,,,0.00,0,Wunderground v.1.15,2013-05-15 04:02:00,
2013-05-15 00:03:00,66.4,58.6,30.18,ENE,75,4.0,8.0,76,0.00,,,0.00,0,Wunderground v.1.15,2013-05-15 04:03:00,
2013-05-15 00:08:00,66.3,58.5,30.18,ENE,75,4.0,8.0,76,0.00,,,0.00,0,Wunderground v.1.15,2013-05-15 04:08:00,
2013-05-15 00:12:00,66.3,58.5,30.18,ENE,75,4.0,7.0,76,0.00,,,0.00,0,Wunderground v.1.15,2013-05-15 04:12:00,
2013-05-15 00:18:00,66.2,58.8,30.18,ENE,75,3.0,7.0,77,0.00,,,0.00,0,Wunderground v.1.15,2013-05-15 04:18:00,
2013-05-15 00:23:00,66.1,58.7,30.18,ENE,75,3.0,7.0,77,0.00,,,0.00,0,Wunderground v.1.15,2013-05-15 04:23:00,
2013-05-15 00:28:00,66.1,58.7,30.18,ENE,75,4.0,7.0,77,0.00,,,0.00,0,Wunderground v.1.15,2013-05-15 04:28:00,
2013-05-15 00:34:00,66.1,58.7,30.18,ENE,75,4.0,7.0,77,0.00,,,0.00,0,Wunderground v.1.15,2013-05-15 04:34:00,
2013-05-15 00:39:00,66.0,58.6,30.18,ENE,75,3.0,7.0,77,0.00,,,0.00,0,Wunderground v.1.15,2013-05-15 04:39:00,
2013-05-15 00:44:00,65.9,58.8,30.18,ENE,75,3.0,7.0,78,0.00,,,0.00,0,Wunderground v.1.15,2013-05-15 04:44:00,
2013-05-15 00:50:00,65.8,58.7,30.18,ENE,75,4.0,7.0,78,0.00,,,0.00,0,Wunderground v.1.15,2013-05-15 04:50:00,
2013-05-15 00:55:00,65.8,58.7,30.18,ENE,75,4.0,7.0,78,0.00,,,0.00,0,Wunderground v.1.15,2013-05-15 04:55:00,
2013-05-15 01:01:00,65.6,58.6,30.18,ENE,75,3.0,7.0,78,0.00,,,0.00,0,Wunderground v.1.15,2013-05-15 05:01:00,
2013-05-15 01:06:00,65.5,58.8,30.18,ENE,75,2.0,7.0,79,0.00,,,0.00,0,Wunderground v.1.15,2013-05-15 05:06:00,
2013-05-15 01:11:00,65.3,58.6,30.18,ENE,75,2.0,7.0,79,0.00,,,0.00,0,Wunderground v.1.15,2013-05-15 05:11:00,
2013-05-15 01:16:00,65.2,58.9,30.18,ENE,75,2.0,7.0,80,0.00,,,0.00,0,Wunderground v.1.15,2013-05-15 05:16:00,
2013-05-15 01:22:00,65.0,58.7,30.18,ENE,75,2.0,7.0,80,0.00,,,0.00,0,Wunderground v.1.15,2013-05-15 05:22:00,
2013-05-15 01:27:00,64.8,58.8,30.17,ENE,75,2.0,7.0,81,0.00,,,0.00,0,Wunderground v.1.15,2013-05-15 05:27:00,
2013-05-15 01:32:00,64.7,58.7,30.17,ENE,75,2.0,7.0,81,0.00,,,0.00,0,Wunderground v.1.15,2013-05-15 05:32:00,
2013-05-15 01:38:00,64.5,58.5,30.17,ENE,75,2.0,7.0,81,0.00,,,0.00,0,Wunderground v.1.15,2013-05-15 05:38:00,
2013-05-15 01:43:00,64.3,58.7,30.17,ENE,75,2.0,7.0,82,0.00,,,0.00,0,Wunderground v.1.15,2013-05-15 05:43:00,
2013-05-15 01:48:00,64.2,58.9,30.17,ENE,75,2.0,7.0,83,0.00,,,0.00,0,Wunderground v.1.15,2013-05-15 05:48:00,
2013-05-15 01:53:00,64.1,59.2,30.17,ENE,75,3.0,7.0,84,0.00,,,0.00,0,Wunderground v.1.15,2013-05-15 05:53:00,
2013-05-15 01:59:00,63.9,59.0,30.17,ENE,75,3.0,7.0,84,0.00,,,0.00,0,Wunderground v.1.15,2013-05-15 05:59:00,
2013-05-15 02:05:00,63.9,59.0,30.17,ENE,75,3.0,7.0,84,0.00,,,0.00,0,Wunderground v.1.15,2013-05-15 06:05:00,
2013-05-15 02:10:00,63.8,58.9,30.16,ENE,75,3.0,7.0,84,0.00,,,0.00,0,Wunderground v.1.15,2013-05-15 06:10:00,
2013-05-15 02:15:00,63.8,59.2,30.17,ENE,75,3.0,7.0,85,0.00,,,0.00,0,Wunderground v.1.15,2013-05-15 06:15:00,
2013-05-15 02:20:00,63.6,58.7,30.16,ENE,75,3.0,3.0,84,0.00,,,0.00,0,Wunderground v.1.15,2013-05-15 06:20:00,
2013-05-15 02:26:00,63.6,59.0,30.16,ENE,75,3.0,7.0,85,0.00,,,0.00,0,Wunderground v.1.15,2013-05-15 06:26:00,
2013-05-15 02:31:00,63.6,59.0,30.16,ENE,75,3.0,7.0,85,0.00,,,0.00,0,Wunderground v.1.15,2013-05-15 06:31:00,
2013-05-15 02:36:00,63.6,59.0,30.16,ENE,75,3.0,7.0,85,0.00,,,0.00,0,Wunderground v.1.15,2013-05-15 06:36:00,
2013-05-15 02:42:00,63.6,59.3,30.16,ENE,68,3.0,7.0,86,0.00,,,0.00,0,Wunderground v.1.15,2013-05-15 06:42:00,
2013-05-15 02:47:00,63.6,59.7,30.16,ENE,75,2.0,7.0,87,0.00,,,0.00,0,Wunderground v.1.15,2013-05-15 06:47:00,
2013-05-15 02:52:00,63.5,59.6,30.16,ENE,75,3.0,7.0,87,0.00,,,0.00,0,Wunderground v.1.15,2013-05-15 06:52:00,
2013-05-15 02:58:00,63.3,59.4,30.16,ENE,75,3.0,7.0,87,0.00,,,0.00,0,Wunderground v.1.15,2013-05-15 06:58:00,
2013-05-15 03:03:00,63.2,59.3,30.16,ENE,75,3.0,7.0,87,0.00,,,0.00,0,Wunderground v.1.15,2013-05-15 07:03:00,
2013-05-15 03:08:00,63.0,59.1,30.16,ENE,75,3.0,7.0,87,0.00,,,0.00,0,Wunderground v.1.15,2013-05-15 07:08:00,
2013-05-15 03:14:00,62.9,59.3,30.16,ENE,75,2.0,5.0,88,0.00,,,0.00,0,Wunderground v.1.15,2013-05-15 07:14:00,
2013-05-15 03:19:00,62.9,59.3,30.16,ENE,75,2.0,5.0,88,0.00,,,0.00,0,Wunderground v.1.15,2013-05-15 07:19:00,
2013-05-15 03:24:00,62.9,59.3,30.16,ENE,75,2.0,5.0,88,0.00,,,0.00,0,Wunderground v.1.15,2013-05-15 07:24:00,
2013-05-15 03:29:00,62.9,59.3,30.16,ENE,75,2.0,5.0,88,0.00,,,0.00,0,Wunderground v.1.15,2013-05-15 07:29:00,
2013-05-15 03:35:00,63.0,59.4,30.15,ENE,75,3.0,5.0,88,0.00,,,0.00,0,Wunderground v.1.15,2013-05-15 07:35:00,
2013-05-15 03:41:00,63.0,59.4,30.15,ENE,75,2.0,5.0,88,0.00,,,0.00,0,Wunderground v.1.15,2013-05-15 07:41:00,
2013-05-15 03:46:00,63.0,59.4,30.15,ENE,75,2.0,5.0,88,0.00,,,0.00,0,Wunderground v.1.15,2013-05-15 07:46:00,
2013-05-15 03:51:00,62.9,59.3,30.15,ENE,75,2.0,5.0,88,0.00,,,0.00,0,Wunderground v.1.15,2013-05-15 07:51:00,
2013-05-15 03:56:00,62.8,59.2,30.15,ENE,75,1.0,5.0,88,0.00,,,0.00,0,Wunderground v.1.15,2013-05-15 07:56:00,
2013-05-15 04:02:00,62.6,59.0,30.15,ENE,75,0.0,5.0,88,0.00,,,0.00,0,Wunderground v.1.15,2013-05-15 08:02:00,
2013-05-15 04:07:00,62.5,59.2,30.15,ENE,75,0.0,5.0,89,0.00,,,0.00,0,Wunderground v.1.15,2013-05-15 08:07:00,
2013-05-15 04:12:00,62.4,59.1,30.15,ENE,75,0.0,5.0,89,0.00,,,0.00,0,Wunderground v.1.15,2013-05-15 08:12:00,
2013-05-15 04:18:00,62.3,59.3,30.15,ENE,75,0.0,5.0,90,0.00,,,0.00,0,Wunderground v.1.15,2013-05-15 08:18:00,
2013-05-15 04:23:00,62.3,59.3,30.15,ENE,75,0.0,5.0,90,0.00,,,0.00,0,Wunderground v.1.15,2013-05-15 08:23:00,
2013-05-15 04:28:00,62.3,59.3,30.15,ENE,75,0.0,5.0,90,0.00,,,0.00,0,Wunderground v.1.15,2013-05-15 08:28:00,
2013-05-15 04:34:00,62.3,59.3,30.15,ENE,75,0.0,5.0,90,0.00,,,0.00,0,Wunderground v.1.15,2013-05-15 08:34:00,
2013-05-15 04:39:00,62.2,59.2,30.15,ENE,75,0.0,5.0,90,0.00,,,0.00,0,Wunderground v.1.15,2013-05-15 08:39:00,
2013-05-15 04:44:00,62.2,59.5,30.15,ENE,75,0.0,5.0,91,0.00,,,0.00,0,Wunderground v.1.15,2013-05-15 08:44:00,
2013-05-15 04:49:00,62.3,59.6,30.15,ENE,75,0.0,5.0,91,0.00,,,0.00,0,Wunderground v.1.15,2013-05-15 08:49:00,
2013-05-15 04:55:00,62.2,59.5,30.15,ENE,75,0.0,5.0,91,0.00,,,0.00,0,Wunderground v.1.15,2013-05-15 08:55:00,
2013-05-15 05:00:00,62.2,59.5,30.15,ENE,75,0.0,5.0,91,0.00,,,0.00,0,Wunderground v.1.15,2013-05-15 09:00:00,
2013-05-15 05:05:00,62.3,59.6,30.15,ENE,75,0.0,5.0,91,0.00,,,0.00,0,Wunderground v.1.15,2013-05-15 09:05:00,
2013-05-15 05:11:00,62.3,59.9,30.15,ENE,75,0.0,3.0,92,0.00,,,0.00,0,Wunderground v.1.15,2013-05-15 09:11:00,
2013-05-15 05:16:00,62.3,59.6,30.15,ENE,75,0.0,3.0,91,0.00,,,0.00,0,Wunderground v.1.15,2013-05-15 09:16:00,
2013-05-15 05:21:00,62.3,59.9,30.15,ENE,75,0.0,3.0,92,0.00,,,0.00,0,Wunderground v.1.15,2013-05-15 09:21:00,
2013-05-15 05:27:00,62.3,59.9,30.14,ENE,75,0.0,3.0,92,0.00,,,0.00,0,Wunderground v.1.15,2013-05-15 09:27:00,
2013-05-15 05:32:00,62.3,59.9,30.14,ENE,75,0.0,3.0,92,0.00,,,0.00,0,Wunderground v.1.15,2013-05-15 09:32:00,
2013-05-15 05:37:00,62.2,59.8,30.14,ENE,75,0.0,3.0,92,0.00,,,0.00,0,Wunderground v.1.15,2013-05-15 09:37:00,
2013-05-15 05:42:00,62.1,59.7,30.14,ENE,75,0.0,3.0,92,0.00,,,0.00,0,Wunderground v.1.15,2013-05-15 09:42:00,
2013-05-15 05:48:00,62.1,59.7,30.15,ENE,75,0.0,3.0,92,0.00,,,0.00,0,Wunderground v.1.15,2013-05-15 09:48:00,
2013-05-15 05:53:00,62.0,59.6,30.15,ENE,75,0.0,3.0,92,0.00,,,0.00,0,Wunderground v.1.15,2013-05-15 09:53:00,
2013-05-15 05:58:00,61.9,59.5,30.15,ENE,75,0.0,3.0,92,0.00,,,0.00,0,Wunderground v.1.15,2013-05-15 09:58:00,
2013-05-15 06:04:00,61.9,59.5,30.15,ENE,75,0.0,3.0,92,0.00,,,0.00,0,Wunderground v.1.15,2013-05-15 10:04:00,
2013-05-15 06:09:00,61.9,59.5,30.16,ENE,75,0.0,3.0,92,0.00,,,0.00,0,Wunderground v.1.15,2013-05-15 10:09:00,
2013-05-15 06:14:00,61.9,59.9,30.16,ENE,75,0.0,0.0,93,0.00,,,0.00,0,Wunderground v.1.15,2013-05-15 10:14:00,
2013-05-15 06:20:00,61.9,59.9,30.16,ENE,75,0.0,0.0,93,0.00,,,0.00,0,Wunderground v.1.15,2013-05-15 10:20:00,
2013-05-15 06:25:00,61.9,59.9,30.16,ENE,75,0.0,0.0,93,0.00,,,0.00,0,Wunderground v.1.15,2013-05-15 10:25:00,
2013-05-15 06:30:00,62.1,60.1,30.17,ENE,75,1.0,2.0,93,0.00,,,0.00,0,Wunderground v.1.15,2013-05-15 10:30:00,
2013-05-15 06:35:00,62.3,60.6,30.17,ENE,75,2.0,3.0,94,0.00,,,0.00,0,Wunderground v.1.15,2013-05-15 10:35:00,
2013-05-15 06:41:00,62.6,60.8,30.17,ENE,75,3.0,3.0,94,0.00,,,0.00,7,Wunderground v.1.15,2013-05-15 10:41:00,
2013-05-15 06:47:00,62.7,60.9,30.17,ENE,75,3.0,3.0,94,0.00,,,0.00,11,Wunderground v.1.15,2013-05-15 10:47:00,
2013-05-15 06:52:00,62.7,60.9,30.17,ENE,75,3.0,3.0,94,0.00,,,0.00,14,Wunderground v.1.15,2013-05-15 10:52:00,
2013-05-15 06:57:00,62.8,61.0,30.17,ENE,75,3.0,4.0,94,0.00,,,0.00,16,Wunderground v.1.15,2013-05-15 10:57:00,
2013-05-15 07:04:00,62.8,61.0,30.18,ENE,75,3.0,4.0,94,0.00,,,0.00,19,Wunderground v.1.15,2013-05-15 11:04:00,
2013-05-15 07:09:00,62.9,61.1,30.18,ENE,75,3.0,4.0,94,0.00,,,0.00,21,Wunderground v.1.15,2013-05-15 11:09:00,
2013-05-15 07:14:00,63.1,61.3,30.17,ENE,75,3.0,3.0,94,0.00,,,0.00,23,Wunderground v.1.15,2013-05-15 11:14:00,
2013-05-15 07:21:00,63.4,61.9,30.18,ENE,75,2.0,3.0,95,0.00,,,0.00,26,Wunderground v.1.15,2013-05-15 11:21:00,
2013-05-15 07:27:00,63.7,62.2,30.18,ENE,75,2.0,3.0,95,0.00,,,0.00,76,Wunderground v.1.15,2013-05-15 11:27:00,
2013-05-15 07:33:00,64.0,62.2,30.18,ENE,75,2.0,3.0,94,0.00,,,0.00,39,Wunderground v.1.15,2013-05-15 11:33:00,
2013-05-15 07:39:00,64.2,62.1,30.18,ENE,75,3.0,5.0,93,0.00,,,0.00,32,Wunderground v.1.15,2013-05-15 11:39:00,
2013-05-15 07:44:00,64.6,62.2,30.18,ENE,75,4.0,4.0,92,0.00,,,0.00,35,Wunderground v.1.15,2013-05-15 11:44:00,
2013-05-15 07:49:00,65.0,62.0,30.18,ENE,75,3.0,4.0,90,0.00,,,0.00,49,Wunderground v.1.15,2013-05-15 11:49:00,
2013-05-15 07:55:00,65.5,62.2,30.18,ENE,75,2.0,3.0,89,0.00,,,0.00,181,Wunderground v.1.15,2013-05-15 11:55:00,
2013-05-15 08:00:00,66.1,62.1,30.19,ENE,75,2.0,3.0,87,0.00,,,0.00,213,Wunderground v.1.15,2013-05-15 12:00:00,
2013-05-15 08:05:00,66.8,62.5,30.19,ENE,75,1.0,4.0,86,0.00,,,0.00,239,Wunderground v.1.15,2013-05-15 12:05:00,
2013-05-15 08:12:00,67.9,62.9,30.19,ENE,75,1.0,4.0,84,0.00,,,0.00,264,Wunderground v.1.15,2013-05-15 12:12:00,
2013-05-15 08:17:00,68.7,63.3,30.19,ENE,75,1.0,4.0,83,0.00,,,0.00,279,Wunderground v.1.15,2013-05-15 12:17:00,
2013-05-15 08:23:00,69.5,63.1,30.19,ENE,75,0.0,4.0,80,0.00,,,0.00,301,Wunderground v.1.15,2013-05-15 12:23:00,
2013-05-15 08:28:00,70.2,63.0,30.19,ENE,75,0.0,4.0,78,0.00,,,0.00,316,Wunderground v.1.15,2013-05-15 12:28:00,
2013-05-15 08:33:00,70.9,63.3,30.20,ENE,75,0.0,4.0,77,0.00,,,0.00,334,Wunderground v.1.15,2013-05-15 12:33:00,
2013-05-15 08:39:00,71.7,63.7,30.19,ENE,75,0.0,4.0,76,0.00,,,0.00,355,Wunderground v.1.15,2013-05-15 12:39:00,
2013-05-15 08:44:00,72.2,63.4,30.19,ENE,75,1.0,4.0,74,0.00,,,0.00,374,Wunderground v.1.15,2013-05-15 12:44:00,
2013-05-15 08:49:00,72.7,62.8,30.19,ENE,75,1.0,4.0,71,0.00,,,0.00,394,Wunderground v.1.15,2013-05-15 12:49:00,
2013-05-15 08:55:00,73.1,62.3,30.19,ENE,75,1.0,4.0,69,0.00,,,0.00,415,Wunderground v.1.15,2013-05-15 12:55:00,
2013-05-15 09:00:00,73.5,61.9,30.20,ENE,75,2.0,2.0,67,0.00,,,0.00,434,Wunderground v.1.15,2013-05-15 13:00:00,
2013-05-15 09:06:00,74.0,62.3,30.20,ENE,75,1.0,5.0,67,0.00,,,0.00,452,Wunderground v.1.15,2013-05-15 13:06:00,
2013-05-15 09:11:00,74.6,62.9,30.20,ENE,75,0.0,5.0,67,0.00,,,0.00,471,Wunderground v.1.15,2013-05-15 13:11:00,
2013-05-15 09:17:00,75.0,61.5,30.20,ENE,75,0.0,5.0,63,0.00,,,0.00,494,Wunderground v.1.15,2013-05-15 13:17:00,
2013-05-15 09:22:00,75.2,61.7,30.20,ENE,75,1.0,5.0,63,0.00,,,0.00,512,Wunderground v.1.15,2013-05-15 13:22:00,
2013-05-15 09:27:00,75.6,60.7,30.20,ENE,75,1.0,5.0,60,0.00,,,0.00,526,Wunderground v.1.15,2013-05-15 13:27:00,
2013-05-15 09:34:00,75.9,61.9,30.20,ENE,75,2.0,5.0,62,0.00,,,0.00,550,Wunderground v.1.15,2013-05-15 13:34:00,
2013-05-15 09:39:00,76.0,63.4,30.20,ENE,75,2.0,5.0,65,0.00,,,0.00,568,Wunderground v.1.15,2013-05-15 13:39:00,
2013-05-15 09:44:00,76.1,62.1,30.20,ENE,75,1.0,5.0,62,0.00,,,0.00,582,Wunderground v.1.15,2013-05-15 13:44:00,
2013-05-15 09:50:00,76.2,61.8,30.20,ENE,75,0.0,5.0,61,0.00,,,0.00,605,Wunderground v.1.15,2013-05-15 13:50:00,
2013-05-15 09:55:00,76.7,61.3,30.20,ENE,75,1.0,5.0,59,0.00,,,0.00,619,Wunderground v.1.15,2013-05-15 13:55:00,
2013-05-15 10:01:00,77.1,61.7,30.20,East,79,1.0,5.0,59,0.00,,,0.00,640,Wunderground v.1.15,2013-05-15 14:01:00,
2013-05-15 10:06:00,77.4,62.9,30.20,East,81,1.0,5.0,61,0.00,,,0.00,659,Wunderground v.1.15,2013-05-15 14:06:00,
2013-05-15 10:12:00,77.4,61.9,30.20,ESE,102,2.0,5.0,59,0.00,,,0.00,680,Wunderground v.1.15,2013-05-15 14:12:00,
2013-05-15 10:18:00,77.7,61.7,30.20,ESE,102,3.0,5.0,58,0.00,,,0.00,686,Wunderground v.1.15,2013-05-15 14:18:00,
2013-05-15 10:24:00,78.1,61.1,30.20,ESE,104,1.0,5.0,56,0.00,,,0.00,701,Wunderground v.1.15,2013-05-15 14:24:00,
2013-05-15 10:29:00,77.9,62.4,30.20,SE,143,3.0,8.0,59,0.00,,,0.00,729,Wunderground v.1.15,2013-05-15 14:29:00,
2013-05-15 10:34:00,77.6,62.1,30.20,ESE,123,4.0,5.0,59,0.00,,,0.00,737,Wunderground v.1.15,2013-05-15 14:34:00,
2013-05-15 10:40:00,77.5,62.5,30.20,SSE,165,2.0,7.0,60,0.00,,,0.00,747,Wunderground v.1.15,2013-05-15 14:40:00,
2013-05-15 10:45:00,77.0,62.0,30.20,SSE,165,3.0,7.0,60,0.00,,,0.00,788,Wunderground v.1.15,2013-05-15 14:45:00,
2013-05-15 10:50:00,77.2,62.2,30.20,SSE,165,2.0,2.0,60,0.00,,,0.00,789,Wunderground v.1.15,2013-05-15 14:50:00,
2013-05-15 10:56:00,77.4,61.5,30.20,SSE,165,1.0,5.0,58,0.00,,,0.00,800,Wunderground v.1.15,2013-05-15 14:56:00,
2013-05-15 11:01:00,77.9,62.9,30.20,SSE,166,2.0,6.0,60,0.00,,,0.00,812,Wunderground v.1.15,2013-05-15 15:01:00,
2013-05-15 11:07:00,77.7,60.8,30.20,South,179,4.0,8.0,56,0.00,,,0.00,821,Wunderground v.1.15,2013-05-15 15:07:00,
2013-05-15 11:12:00,78.1,61.1,30.20,SE,146,4.0,8.0,56,0.00,,,0.00,838,Wunderground v.1.15,2013-05-15 15:12:00,
2013-05-15 11:18:00,78.4,62.4,30.20,SSE,159,4.0,8.0,58,0.00,,,0.00,851,Wunderground v.1.15,2013-05-15 15:18:00,
2013-05-15 11:24:00,78.8,62.8,30.20,South,172,2.0,8.0,58,0.00,,,0.00,865,Wunderground v.1.15,2013-05-15 15:24:00,
2013-05-15 11:31:00,79.4,63.3,30.19,SSW,209,2.0,8.0,58,0.00,,,0.00,886,Wunderground v.1.15,2013-05-15 15:31:00,
2013-05-15 11:36:00,79.8,61.7,30.19,SSW,209,1.0,8.0,54,0.00,,,0.00,882,Wunderground v.1.15,2013-05-15 15:36:00,
2013-05-15 11:41:00,80.2,63.6,30.19,SSW,209,1.0,8.0,57,0.00,,,0.00,907,Wunderground v.1.15,2013-05-15 15:41:00,
2013-05-15 11:47:00,80.1,65.4,30.19,SW,236,3.0,8.0,61,0.00,,,0.00,925,Wunderground v.1.15,2013-05-15 15:47:00,
2013-05-15 11:52:00,80.1,63.5,30.19,SW,236,4.0,8.0,57,0.00,,,0.00,898,Wunderground v.1.15,2013-05-15 15:52:00,
2013-05-15 11:58:00,79.9,62.3,30.19,SW,236,3.0,8.0,55,0.00,,,0.00,844,Wunderground v.1.15,2013-05-15 15:58:00,
2013-05-15 12:04:00,80.0,62.9,30.19,WSW,250,3.0,8.0,56,0.00,,,0.00,930,Wunderground v.1.15,2013-05-15 16:04:00,
2013-05-15 12:10:00,80.2,62.0,30.19,SSE,159,3.0,8.0,54,0.00,,,0.00,954,Wunderground v.1.15,2013-05-15 16:10:00,
2013-05-15 12:16:00,79.6,61.5,30.19,South,169,5.0,8.0,54,0.00,,,0.00,984,Wunderground v.1.15,2013-05-15 16:16:00,
2013-05-15 12:21:00,79.3,61.7,30.18,SSE,150,5.0,8.0,55,0.00,,,0.00,949,Wunderground v.1.15,2013-05-15 16:21:00,
2013-05-15 12:27:00,79.4,61.8,30.18,SSW,206,4.0,8.0,55,0.00,,,0.00,1037,Wunderground v.1.15,2013-05-15 16:27:00,
2013-05-15 12:32:00,79.8,62.2,30.18,SSW,207,4.0,8.0,55,0.00,,,0.00,997,Wunderground v.1.15,2013-05-15 16:32:00,
2013-05-15 12:37:00,80.2,61.5,30.18,SSW,207,2.0,8.0,53,0.00,,,0.00,976,Wunderground v.1.15,2013-05-15 16:37:00,
2013-05-15 12:42:00,80.8,61.5,30.18,ESE,102,3.0,8.0,52,0.00,,,0.00,976,Wunderground v.1.15,2013-05-15 16:42:00,
2013-05-15 12:48:00,81.2,61.4,30.18,ESE,121,4.0,8.0,51,0.00,,,0.00,1011,Wunderground v.1.15,2013-05-15 16:48:00,
2013-05-15 12:53:00,81.6,61.2,30.18,East,90,2.0,8.0,50,0.00,,,0.00,1039,Wunderground v.1.15,2013-05-15 16:53:00,
2013-05-15 13:01:00,81.6,61.7,30.18,SSE,162,3.0,10.0,51,0.00,,,0.00,1053,Wunderground v.1.15,2013-05-15 17:01:00,
2013-05-15 13:06:00,81.1,61.3,30.18,SE,133,6.0,10.0,51,0.00,,,0.00,1042,Wunderground v.1.15,2013-05-15 17:06:00,
2013-05-15 13:12:00,82.0,63.2,30.18,ESE,116,6.0,10.0,53,0.00,,,0.00,1042,Wunderground v.1.15,2013-05-15 17:12:00,
2013-05-15 13:19:00,82.1,61.0,30.18,ESE,105,5.0,10.0,49,0.00,,,0.00,1034,Wunderground v.1.15,2013-05-15 17:19:00,
2013-05-15 13:25:00,82.1,59.9,30.17,SE,124,4.0,10.0,47,0.00,,,0.00,1048,Wunderground v.1.15,2013-05-15 17:25:00,
2013-05-15 13:30:00,81.9,62.5,30.17,SSE,167,4.0,10.0,52,0.00,,,0.00,1056,Wunderground v.1.15,2013-05-15 17:30:00,
2013-05-15 13:36:00,81.4,62.6,30.17,SE,138,7.0,10.0,53,0.00,,,0.00,1109,Wunderground v.1.15,2013-05-15 17:36:00,
2013-05-15 13:42:00,81.5,61.6,30.17,SE,133,6.0,10.0,51,0.00,,,0.00,301,Wunderground v.1.15,2013-05-15 17:42:00,
2013-05-15 13:48:00,81.5,62.7,30.16,SE,133,4.0,10.0,53,0.00,,,0.00,1151,Wunderground v.1.15,2013-05-15 17:48:00,
2013-05-15 13:53:00,81.7,60.7,30.16,ENE,77,4.0,10.0,49,0.00,,,0.00,1049,Wunderground v.1.15,2013-05-15 17:53:00,
2013-05-15 13:59:00,82.8,62.8,30.15,ESE,102,6.0,10.0,51,0.00,,,0.00,1023,Wunderground v.1.15,2013-05-15 17:59:00,
2013-05-15 14:04:00,83.0,61.3,30.15,ESE,107,7.0,12.0,48,0.00,,,0.00,1011,Wunderground v.1.15,2013-05-15 18:04:00,
2013-05-15 14:09:00,82.9,62.4,30.15,ESE,102,6.0,12.0,50,0.00,,,0.00,1018,Wunderground v.1.15,2013-05-15 18:09:00,
2013-05-15 14:16:00,82.8,61.7,30.14,SSE,154,7.0,12.0,49,0.00,,,0.00,1063,Wunderground v.1.15,2013-05-15 18:16:00,
2013-05-15 14:23:00,82.4,63.0,30.14,SSE,147,7.0,12.0,52,0.00,,,0.00,1062,Wunderground v.1.15,2013-05-15 18:23:00,
2013-05-15 14:28:00,82.7,61.6,30.14,ENE,63,4.0,12.0,49,0.00,,,0.00,220,Wunderground v.1.15,2013-05-15 18:28:00,
2013-05-15 14:34:00,82.8,62.3,30.14,ESE,103,4.0,12.0,50,0.00,,,0.00,1055,Wunderground v.1.15,2013-05-15 18:34:00,
2013-05-15 14:40:00,83.7,63.7,30.14,SE,128,5.0,12.0,51,0.00,,,0.00,1042,Wunderground v.1.15,2013-05-15 18:40:00,
2013-05-15 14:45:00,83.5,61.7,30.13,SE,142,4.0,12.0,48,0.00,,,0.00,381,Wunderground v.1.15,2013-05-15 18:45:00,
2013-05-15 14:51:00,82.9,61.2,30.13,SE,138,4.0,12.0,48,0.00,,,0.00,281,Wunderground v.1.15,2013-05-15 18:51:00,
2013-05-15 14:56:00,82.3,61.8,30.13,SSE,166,7.0,12.0,50,0.00,,,0.00,1018,Wunderground v.1.15,2013-05-15 18:56:00,
2013-05-15 15:01:00,82.2,65.4,30.12,South,179,8.0,15.0,57,0.00,,,0.00,1035,Wunderground v.1.15,2013-05-15 19:01:00,
2013-05-15 15:09:00,82.3,63.5,30.12,SE,128,9.0,15.0,53,0.00,,,0.00,956,Wunderground v.1.15,2013-05-15 19:09:00,
2013-05-15 15:14:00,82.7,64.9,30.12,SSE,157,9.0,15.0,55,0.00,,,0.00,1009,Wunderground v.1.15,2013-05-15 19:14:00,
2013-05-15 15:22:00,82.1,65.9,30.11,South,177,9.0,15.0,58,0.00,,,0.00,1011,Wunderground v.1.15,2013-05-15 19:22:00,
2013-05-15 15:29:00,82.3,61.2,30.11,East,98,9.0,15.0,49,0.00,,,0.00,272,Wunderground v.1.15,2013-05-15 19:29:00,
2013-05-15 15:35:00,82.7,63.8,30.11,ESE,122,7.0,15.0,53,0.00,,,0.00,1039,Wunderground v.1.15,2013-05-15 19:35:00,
2013-05-15 15:41:00,83.4,62.8,30.11,SSE,152,5.0,15.0,50,0.00,,,0.00,995,Wunderground v.1.15,2013-05-15 19:41:00,
2013-05-15 15:46:00,83.2,63.7,30.11,SE,138,8.0,15.0,52,0.00,,,0.00,223,Wunderground v.1.15,2013-05-15 19:46:00,
2013-05-15 15:54:00,83.0,63.0,30.11,SE,138,6.0,15.0,51,0.00,,,0.00,965,Wunderground v.1.15,2013-05-15 19:54:00,
2013-05-15 15:59:00,83.5,62.9,30.11,ENE,72,5.0,15.0,50,0.00,,,0.00,1018,Wunderground v.1.15,2013-05-15 19:59:00,
2013-05-15 16:05:00,83.5,62.9,30.11,SE,128,6.0,17.0,50,0.00,,,0.00,258,Wunderground v.1.15,2013-05-15 20:05:00,
2013-05-15 16:10:00,82.7,62.2,30.10,SE,138,8.0,17.0,50,0.00,,,0.00,244,Wunderground v.1.15,2013-05-15 20:10:00,
2013-05-15 16:16:00,82.2,62.3,30.10,East,88,8.0,17.0,51,0.00,,,0.00,587,Wunderground v.1.15,2013-05-15 20:16:00,
2013-05-15 16:21:00,82.5,62.0,30.10,East,100,6.0,17.0,50,0.00,,,0.00,796,Wunderground v.1.15,2013-05-15 20:21:00,
2013-05-15 16:26:00,82.7,63.3,30.10,ESE,121,6.0,17.0,52,0.00,,,0.00,768,Wunderground v.1.15,2013-05-15 20:26:00,
2013-05-15 16:31:00,82.5,64.2,30.10,SSE,154,8.0,17.0,54,0.00,,,0.00,784,Wunderground v.1.15,2013-05-15 20:31:00,
2013-05-15 16:37:00,82.3,62.9,30.10,SE,133,10.0,17.0,52,0.00,,,0.00,682,Wunderground v.1.15,2013-05-15 20:37:00,
2013-05-15 16:43:00,82.6,62.6,30.09,ESE,109,8.0,17.0,51,0.00,,,0.00,693,Wunderground v.1.15,2013-05-15 20:43:00,
2013-05-15 16:49:00,82.1,63.3,30.09,SE,144,9.0,17.0,53,0.00,,,0.00,192,Wunderground v.1.15,2013-05-15 20:49:00,
2013-05-15 16:54:00,81.6,62.3,30.09,ESE,122,9.0,17.0,52,0.00,,,0.00,633,Wunderground v.1.15,2013-05-15 20:54:00,
2013-05-15 16:59:00,81.6,62.3,30.09,ESE,115,9.0,17.0,52,0.00,,,0.00,656,Wunderground v.1.15,2013-05-15 20:59:00,
2013-05-15 17:06:00,81.6,63.9,30.09,SSE,162,9.0,17.0,55,0.00,,,0.00,605,Wunderground v.1.15,2013-05-15 21:06:00,
2013-05-15 17:11:00,81.4,62.6,30.09,SE,128,9.0,16.0,53,0.00,,,0.00,601,Wunderground v.1.15,2013-05-15 21:11:00,
2013-05-15 17:17:00,81.7,61.2,30.09,SE,144,10.0,16.0,50,0.00,,,0.00,575,Wunderground v.1.15,2013-05-15 21:17:00,
2013-05-15 17:22:00,81.6,60.6,30.09,ESE,108,9.0,16.0,49,0.00,,,0.00,568,Wunderground v.1.15,2013-05-15 21:22:00,
2013-05-15 17:27:00,81.9,62.0,30.09,SE,133,7.0,16.0,51,0.00,,,0.00,548,Wunderground v.1.15,2013-05-15 21:27:00,
2013-05-15 17:34:00,81.8,60.8,30.09,ESE,113,7.0,16.0,49,0.00,,,0.00,520,Wunderground v.1.15,2013-05-15 21:34:00,
2013-05-15 17:39:00,81.9,60.3,30.09,SE,138,8.0,16.0,48,0.00,,,0.00,503,Wunderground v.1.15,2013-05-15 21:39:00,
2013-05-15 17:45:00,81.4,59.2,30.09,ESE,107,8.0,16.0,47,0.00,,,0.00,480,Wunderground v.1.15,2013-05-15 21:45:00,
2013-05-15 17:51:00,81.2,61.4,30.09,SSE,150,8.0,16.0,51,0.00,,,0.00,462,Wunderground v.1.15,2013-05-15 21:51:00,
2013-05-15 17:56:00,80.8,58.7,30.09,SSE,149,8.0,16.0,47,0.00,,,0.00,432,Wunderground v.1.15,2013-05-15 21:56:00,
2013-05-15 18:01:00,80.6,60.8,30.09,SSE,155,9.0,17.0,51,0.00,,,0.00,418,Wunderground v.1.15,2013-05-15 22:01:00,
2013-05-15 18:07:00,80.4,59.5,30.09,SE,138,9.0,17.0,49,0.00,,,0.00,406,Wunderground v.1.15,2013-05-15 22:07:00,
2013-05-15 18:13:00,80.5,59.0,30.09,SE,138,9.0,17.0,48,0.00,,,0.00,383,Wunderground v.1.15,2013-05-15 22:13:00,
2013-05-15 18:18:00,80.4,61.2,30.09,SSE,151,9.0,17.0,52,0.00,,,0.00,353,Wunderground v.1.15,2013-05-15 22:18:00,
2013-05-15 18:23:00,80.2,59.3,30.09,SSE,151,9.0,17.0,49,0.00,,,0.00,343,Wunderground v.1.15,2013-05-15 22:23:00,
2013-05-15 18:28:00,80.1,58.6,30.09,SE,142,7.0,17.0,48,0.00,,,0.00,325,Wunderground v.1.15,2013-05-15 22:28:00,
2013-05-15 18:34:00,80.0,58.0,30.09,SE,138,8.0,17.0,47,0.00,,,0.00,302,Wunderground v.1.15,2013-05-15 22:34:00,
2013-05-15 18:40:00,80.0,61.3,30.09,SSE,161,8.0,17.0,53,0.00,,,0.00,276,Wunderground v.1.15,2013-05-15 22:40:00,
2013-05-15 18:45:00,79.6,59.3,30.09,SSE,157,8.0,17.0,50,0.00,,,0.00,257,Wunderground v.1.15,2013-05-15 22:45:00,
2013-05-15 18:51:00,79.4,58.0,30.09,SE,128,9.0,17.0,48,0.00,,,0.00,237,Wunderground v.1.15,2013-05-15 22:51:00,
2013-05-15 18:56:00,79.5,58.7,30.09,SSE,149,7.0,17.0,49,0.00,,,0.00,216,Wunderground v.1.15,2013-05-15 22:56:00,
2013-05-15 19:02:00,79.3,57.9,30.09,SE,128,7.0,19.0,48,0.00,,,0.00,192,Wunderground v.1.15,2013-05-15 23:02:00,
2013-05-15 19:07:00,79.2,57.8,30.09,SE,128,8.0,19.0,48,0.00,,,0.00,169,Wunderground v.1.15,2013-05-15 23:07:00,
2013-05-15 19:12:00,79.0,58.2,30.09,ESE,106,7.0,19.0,49,0.00,,,0.00,144,Wunderground v.1.15,2013-05-15 23:12:00,
2013-05-15 19:18:00,78.8,58.6,30.09,SE,138,7.0,19.0,50,0.00,,,0.00,121,Wunderground v.1.15,2013-05-15 23:18:00,
2013-05-15 19:25:00,78.5,58.3,30.09,SE,133,7.0,19.0,50,0.00,,,0.00,88,Wunderground v.1.15,2013-05-15 23:25:00,
2013-05-15 19:30:00,78.2,59.1,30.09,SE,133,8.0,8.0,52,0.00,,,0.00,76,Wunderground v.1.15,2013-05-15 23:30:00,
2013-05-15 19:37:00,78.0,59.5,30.09,SE,128,6.0,19.0,53,0.00,,,0.00,44,Wunderground v.1.15,2013-05-15 23:37:00,
2013-05-15 19:42:00,77.8,59.3,30.09,SE,138,6.0,11.0,53,0.00,,,0.00,40,Wunderground v.1.15,2013-05-15 23:42:00,
2013-05-15 19:47:00,77.4,59.5,30.09,SE,128,7.0,19.0,54,0.00,,,0.00,30,Wunderground v.1.15,2013-05-15 23:47:00,
2013-05-15 19:53:00,77.1,59.2,30.09,ESE,115,6.0,19.0,54,0.00,,,0.00,19,Wunderground v.1.15,2013-05-15 23:53:00,
2013-05-15 19:58:00,76.8,59.9,30.08,SE,128,6.0,19.0,56,0.00,,,0.00,12,Wunderground v.1.15,2013-05-15 23:58:00,
2013-05-15 20:03:00,76.4,60.0,30.08,SSE,149,7.0,19.0,57,0.00,,,0.00,7,Wunderground v.1.15,2013-05-16 00:03:00,
2013-05-15 20:09:00,76.0,60.2,30.09,SE,144,6.0,19.0,58,0.00,,,0.00,0,Wunderground v.1.15,2013-05-16 00:09:00,
2013-05-15 20:14:00,75.6,60.3,30.09,SE,128,6.0,14.0,59,0.00,,,0.00,0,Wunderground v.1.15,2013-05-16 00:14:00,
2013-05-15 20:19:00,75.3,60.5,30.09,SE,128,5.0,14.0,60,0.00,,,0.00,0,Wunderground v.1.15,2013-05-16 00:19:00,
2013-05-15 20:25:00,74.9,60.5,30.09,SE,133,5.0,14.0,61,0.00,,,0.00,0,Wunderground v.1.15,2013-05-16 00:25:00,
2013-05-15 20:30:00,74.7,60.4,30.09,SE,133,5.0,14.0,61,0.00,,,0.00,0,Wunderground v.1.15,2013-05-16 00:30:00,
2013-05-15 20:36:00,74.3,60.4,30.09,SE,138,6.0,14.0,62,0.00,,,0.00,0,Wunderground v.1.15,2013-05-16 00:36:00,
2013-05-15 20:41:00,74.0,60.2,30.09,SE,138,6.0,14.0,62,0.00,,,0.00,0,Wunderground v.1.15,2013-05-16 00:41:00,
2013-05-15 20:46:00,73.8,60.4,30.09,SE,133,6.0,14.0,63,0.00,,,0.00,0,Wunderground v.1.15,2013-05-16 00:46:00,
2013-05-15 20:52:00,73.5,60.1,30.09,SE,128,6.0,14.0,63,0.00,,,0.00,0,Wunderground v.1.15,2013-05-16 00:52:00,
2013-05-15 20:57:00,73.4,60.5,30.09,SE,138,7.0,14.0,64,0.00,,,0.00,0,Wunderground v.1.15,2013-05-16 00:57:00,
2013-05-15 21:02:00,73.1,60.6,30.09,SE,128,8.0,14.0,65,0.00,,,0.00,0,Wunderground v.1.15,2013-05-16 01:02:00,
2013-05-15 21:08:00,73.0,61.0,30.09,SE,138,8.0,14.0,66,0.00,,,0.00,0,Wunderground v.1.15,2013-05-16 01:08:00,
2013-05-15 21:14:00,72.7,61.1,30.09,SE,128,7.0,13.0,67,0.00,,,0.00,0,Wunderground v.1.15,2013-05-16 01:14:00,
2013-05-15 21:20:00,72.5,61.3,30.08,SE,138,7.0,7.0,68,0.00,,,0.00,0,Wunderground v.1.15,2013-05-16 01:20:00,
2013-05-15 21:25:00,72.3,61.6,30.09,SE,138,6.0,13.0,69,0.00,,,0.00,0,Wunderground v.1.15,2013-05-16 01:25:00,
2013-05-15 21:30:00,72.1,61.4,30.09,SE,128,7.0,7.0,69,0.00,,,0.00,0,Wunderground v.1.15,2013-05-16 01:30:00,
2013-05-15 21:36:00,72.0,61.7,30.09,SE,128,7.0,13.0,70,0.00,,,0.00,0,Wunderground v.1.15,2013-05-16 01:36:00,
2013-05-15 21:41:00,71.8,61.5,30.09,SE,128,7.0,13.0,70,0.00,,,0.00,0,Wunderground v.1.15,2013-05-16 01:41:00,
2013-05-15 21:47:00,71.7,62.2,30.10,SE,128,6.0,13.0,72,0.00,,,0.00,0,Wunderground v.1.15,2013-05-16 01:47:00,
2013-05-15 21:53:00,71.5,62.4,30.10,SE,138,6.0,13.0,73,0.00,,,0.00,0,Wunderground v.1.15,2013-05-16 01:53:00,
2013-05-15 21:59:00,71.3,62.2,30.10,SE,138,6.0,13.0,73,0.00,,,0.00,0,Wunderground v.1.15,2013-05-16 01:59:00,
2013-05-15 22:05:00,71.2,62.1,30.10,SE,128,6.0,11.0,73,0.00,,,0.00,0,Wunderground v.1.15,2013-05-16 02:05:00,
2013-05-15 22:11:00,71.0,62.3,30.10,SE,143,6.0,11.0,74,0.00,,,0.00,0,Wunderground v.1.15,2013-05-16 02:11:00,
2013-05-15 22:17:00,70.9,62.6,30.11,SE,142,7.0,11.0,75,0.00,,,0.00,0,Wunderground v.1.15,2013-05-16 02:17:00,
2013-05-15 22:22:00,70.8,62.5,30.11,SE,138,6.0,11.0,75,0.00,,,0.00,0,Wunderground v.1.15,2013-05-16 02:22:00,
2013-05-15 22:29:00,70.6,62.3,30.11,SE,133,5.0,11.0,75,0.00,,,0.00,0,Wunderground v.1.15,2013-05-16 02:29:00,
2013-05-15 22:35:00,70.4,62.1,30.11,SE,128,5.0,11.0,75,0.00,,,0.00,0,Wunderground v.1.15,2013-05-16 02:35:00,
2013-05-15 22:40:00,70.3,62.4,30.11,SE,128,5.0,11.0,76,0.00,,,0.00,0,Wunderground v.1.15,2013-05-16 02:40:00,
2013-05-15 22:46:00,70.2,62.3,30.11,SE,133,5.0,11.0,76,0.00,,,0.00,0,Wunderground v.1.15,2013-05-16 02:46:00,
2013-05-15 22:51:00,70.1,62.6,30.11,SE,133,5.0,11.0,77,0.00,,,0.00,0,Wunderground v.1.15,2013-05-16 02:51:00,
2013-05-15 22:57:00,70.0,62.5,30.11,SE,138,5.0,11.0,77,0.00,,,0.00,0,Wunderground v.1.15,2013-05-16 02:57:00,
2013-05-15 23:02:00,69.9,62.4,30.11,SE,138,5.0,12.0,77,0.00,,,0.00,0,Wunderground v.1.15,2013-05-16 03:02:00,
2013-05-15 23:07:00,69.8,62.6,30.11,SE,138,5.0,12.0,78,0.00,,,0.00,0,Wunderground v.1.15,2013-05-16 03:07:00,
2013-05-15 23:13:00,69.7,62.5,30.11,SE,138,6.0,12.0,78,0.00,,,0.00,0,Wunderground v.1.15,2013-05-16 03:13:00,
2013-05-15 23:18:00,69.7,62.9,30.11,SE,138,5.0,12.0,79,0.00,,,0.00,0,Wunderground v.1.15,2013-05-16 03:18:00,
2013-05-15 23:23:00,69.5,62.7,30.11,SE,138,5.0,12.0,79,0.00,,,0.00,0,Wunderground v.1.15,2013-05-16 03:23:00,
2013-05-15 23:29:00,69.5,62.7,30.11,SE,138,5.0,12.0,79,0.00,,,0.00,0,Wunderground v.1.15,2013-05-16 03:29:00,
2013-05-15 23:34:00,69.4,63.0,30.11,SE,138,5.0,12.0,80,0.00,,,0.00,0,Wunderground v.1.15,2013-05-16 03:34:00,
2013-05-15 23:39:00,69.4,63.0,30.10,SE,138,6.0,12.0,80,0.00,,,0.00,0,Wunderground v.1.15,2013-05-16 03:39:00,
2013-05-15 23:45:00,69.4,63.0,30.10,SE,144,6.0,12.0,80,0.00,,,0.00,0,Wunderground v.1.15,2013-05-16 03:45:00,
2013-05-15 23:51:00,69.3,62.9,30.10,SE,144,6.0,12.0,80,0.00,,,0.00,0,Wunderground v.1.15,2013-05-16 03:51:00,
2013-05-15 23:56:00,69.2,63.1,30.10,SE,146,5.0,12.0,81,0.00,,,0.00,0,Wunderground v.1.15,2013-05-16 03:56:00,